Location: Misciano
(43.5000°N, 11.9500°E)
Time: 23:20:14
(UTC+00:00)

Cosmos 2278 - Pass Details

Date: 13 August 2020
Orbit: 839 x 853 km, 71.1° (Epoch: 23 September)

Event Time Altitude Azimuth Distance (km) Brightness Sun altitude
Rises 18:57:13 0° 338° (NNW) 3,431 7.7 -7.3°
Reaches altitude 10° 18:59:45 10° 343° (NNW) 2,491 6.9 -7.7°
Maximum altitude 19:05:21 53° 61° (ENE) 1,043 4.0 -8.6°
Enters shadow 19:10:48 10° 137° (SE) 2,438 5.5 -9.5°
